CZ-6A DEB, 60659

Orbit data source: Space-Track

CZ-6A DEB, 60659 is space debris in LEO originally from a launch on Tue, 06 Aug 2024 UTC launched from the Taiyaun Space Center, China (TSC). Debris objects in space refer to the collection of defunct objects orbiting the Earth. Examples of debris include non-operational satellites, rocket bodies, and fragments generated from explosions, collisions, or faulty payload assembly.

Loading next visibility...
Identifier
60659, 2024-140BL
Orbit
LEO
Country
Flag of CNCN / PRC
Related business
Manufacturer
SAST
Mission
Spacecraft
Bus & Motor
Unknown
Mass
Unknown
Launch date (UTC)
2024-08-06 (2 years ago)
Launch vehicle
Unknown
Launch site
Taiyaun Space Center, China (TSC)
Object type
Payload
Rocket body
Debris
Shape & HBR
Unknown shape, 0.2 m
Radar Cross Section
Medium (>0.1 m² and <1 m²)

Expand to show TLE details & history
Last TLE update: 7 hours ago

TLE from 7 hours ago
0 CZ-6A DEB
1 60659U 24140BL  26118.85259698  .00000989  00000-0  44427-3 0  9997
2 60659  89.0013 280.5735 0042038 341.6994  18.2682 14.21232767 89157
Epoch: 2026-04-28T20:27Z
TLE epoch observation values (Epoch: 2026-04-28T20:27:44.379Z)
Latitude
0.00005°
Longitude
116.81663°
Altitude
795.509 km
Speed
7.471 km/s
True Right ascension
18h 42m 17s
True Declination
0° 00' 00"
Sunlit
Object was in daylight at epoch
Visualization orbit readout
Latitude
Unknown
Longitude
Unknown
Altitude
Unknown
Speed
Unknown
Apparent Right ascension
Unknown
Apparent Declination
Unknown
Sunlit
N/A
Visualization observer readout
Local Sidereal Time
11:00:24
Azimuth
Unknown
Elevation
Unknown
Doppler factor
Unknown
Orbital elements
Apogee altitude
848.388 km
Perigee altitude
787.884 km
Semi-major axis
7,196.273 km
Eccentricity
0.0042
Inclination
89.0013°
RAAN
280.5735°
Arg. of periapsis
341.6994°
True anomaly
18.41996°
Mean anomaly
18.2682°
Eccentric anomaly
18.344°
Mean motion
3.55534 °/min
Orbital period
101.26 mins
BSTAR
0.00044427
Loading maneuver chart data...
Computing Atmospheric mass density...
Loading historical data...
Loading historical data...
Loading historical data...
Loading historical data...
Loading historical data...
Loading historical data...
Loading historical data...

Documentation

Showing up to 5 results
|